Crosby, ND

12:04 AM CDT on September 22, 2017 (GMT -0500)
Crosby

Weather History for KD50 - December, 2012

Change the Weather History Date:

Saturday, December 29, 2012

  Actual Average (KISN) Record (KISN)
Temperature  
Mean Temperature 5 °F -  
Max Temperature 21 °F 17 °F 50 °F (1999)
Min Temperature -11 °F -2 °F -31 °F (1938)
Degree Days  
Heating Degree Days 60    
Moisture  
Dew Point 4 °F    
Average Humidity 82    
Maximum Humidity 92    
Minimum Humidity 73    
Precipitation  
Precipitation 0.00 in - - ()
Sea Level Pressure  
Sea Level Pressure 29.92 in    
Wind  
Wind Speed 10 mph (SSW)    
Max Wind Speed 17 mph    
Max Gust Speed 22 mph    
Visibility 10 miles    
Events      
Averages and records for this station are not official NWS values.
T = Trace of Precipitation, MM = Missing Value Source: NWS Daily Summary

Daily Weather History Graph

Daily Weather History Graph

Search for Another Location

Airport or City:

Trip Planner

Search our weather history database for the weather conditions in past years. The results will help you decide how hot, cold, wet, or windy it might be!

Date:

Astronomy

Dec. 29, 2012 Rise Set
Actual Time 8:46 AM CST 5:04 PM CST
Civil Twilight 8:09 AM CST 5:41 PM CST
Nautical Twilight 7:29 AM CST 6:21 PM CST
Astronomical Twilight 6:50 AM CST 7:00 PM CST
Moon 6:49 PM CST (12/29) 9:13 AM CST (12/29)
Length of Visible Light 9h 31m
Length of Day
8h 17m
Full, 98% of the Moon is Illuminated
Dec 29
Full
Jan 4
Last Quarter
Jan 11
New
Jan 18
First Quarter
Jan 26
Full

Hourly Weather History & Observations

Time (CST) Temp. Windchill Dew Point Humidity Pressure Visibility Wind Dir Wind Speed Gust Speed Precip Events Conditions
12:15 AM -11.2 °F -26.4 °F -16.6 °F 77% 29.93 in - South 6.9 mph - N/A   Clear
12:35 AM -11.2 °F -27.8 °F -16.6 °F 77% 29.93 in - South 8.1 mph - N/A   Clear
12:55 AM -9.4 °F -24.3 °F -14.8 °F 77% 29.93 in - South 6.9 mph - N/A   Clear
1:15 AM -9.4 °F -25.6 °F -14.8 °F 77% 29.93 in - SSW 8.1 mph - N/A   Clear
1:35 AM -9.4 °F -25.6 °F -13.0 °F 84% 29.93 in - SSW 8.1 mph - N/A   Unknown
1:55 AM -7.6 °F -24.6 °F -13.0 °F 77% 29.92 in - SSW 9.2 mph - N/A   Clear
2:15 AM -9.4 °F -20.9 °F -13.0 °F 84% 29.93 in 10.0 mi SSW 4.6 mph - N/A   Clear
2:35 AM -7.6 °F - -11.2 °F 84% 29.93 in 10.0 mi Calm Calm - N/A   Clear
2:55 AM -7.6 °F -20.6 °F -13.0 °F 77% 29.94 in 10.0 mi SSW 5.8 mph - N/A   Clear
3:15 AM -7.6 °F -20.6 °F - N/A% 29.93 in 10.0 mi South 5.8 mph - N/A   Clear
3:35 AM -7.6 °F -22.1 °F -11.2 °F 84% 29.94 in 10.0 mi SSW 6.9 mph - N/A   Clear
3:55 AM -7.6 °F -24.6 °F -11.2 °F 84% 29.94 in - SSW 9.2 mph - N/A   Unknown
4:15 AM -5.8 °F -23.4 °F -11.2 °F 77% 29.93 in - SSW 10.4 mph - N/A   Clear
4:35 AM -5.8 °F -23.4 °F -11.2 °F 77% 29.93 in - SSW 10.4 mph - N/A   Clear
4:55 AM -4.0 °F -22.1 °F -9.4 °F 78% 29.93 in - SSW 11.5 mph - N/A   Clear
5:15 AM -4.0 °F -19.0 °F -9.4 °F 78% 29.93 in - SSW 8.1 mph - N/A   Clear
5:35 AM -4.0 °F -19.0 °F -9.4 °F 78% 29.93 in 10.0 mi SSW 8.1 mph - N/A   Clear
5:55 AM -2.2 °F -18.9 °F -7.6 °F 78% 29.92 in - SSW 10.4 mph - N/A   Mostly Cloudy
6:15 AM -0.4 °F -15.7 °F -4.0 °F 85% 29.93 in - SSW 9.2 mph - N/A   Overcast
6:35 AM -0.4 °F -15.7 °F -2.2 °F 92% 29.93 in 10.0 mi SSW 9.2 mph - N/A   Overcast
6:55 AM 3.2 °F -10.3 °F -0.4 °F 85% 29.93 in 10.0 mi SSW 8.1 mph - N/A   Overcast
7:15 AM 3.2 °F -11.3 °F -0.4 °F 85% 29.93 in 10.0 mi SSW 9.2 mph - N/A   Overcast
7:35 AM 3.2 °F -13.1 °F -0.4 °F 85% 29.93 in 10.0 mi SSW 11.5 mph - N/A   Overcast
7:55 AM 5.0 °F -9.1 °F 1.4 °F 85% 29.93 in 10.0 mi SSW 9.2 mph - N/A   Overcast
8:15 AM 6.8 °F -8.6 °F 3.2 °F 85% 29.93 in 10.0 mi SSW 11.5 mph - N/A   Overcast
8:35 AM 6.8 °F -9.3 °F 5.0 °F 92% 29.92 in 10.0 mi SSW 12.7 mph - N/A   Overcast
8:55 AM 8.6 °F -6.3 °F 5.0 °F 85% 29.92 in 10.0 mi South 11.5 mph - N/A   Overcast
9:15 AM 8.6 °F -6.3 °F 6.8 °F 92% 29.92 in 10.0 mi South 11.5 mph - N/A   Overcast
9:35 AM 10.4 °F -4.8 °F 8.6 °F 92% 29.92 in 10.0 mi SSW 12.7 mph - N/A   Overcast
9:55 AM 10.4 °F -5.4 °F 6.8 °F 85% 29.92 in 10.0 mi SSW 13.8 mph - N/A   Mostly Cloudy
10:15 AM 12.2 °F -2.5 °F 8.6 °F 85% 29.92 in 10.0 mi SSW 12.7 mph - N/A   Partly Cloudy
10:35 AM 14.0 °F -0.2 °F 8.6 °F 79% 29.93 in 10.0 mi SSW 12.7 mph - N/A   Clear
10:55 AM 15.8 °F 2.1 °F 10.4 °F 79% 29.93 in 10.0 mi SW 12.7 mph - N/A   Clear
11:15 AM 15.8 °F 3.4 °F 10.4 °F 79% 29.93 in 10.0 mi SW 10.4 mph - N/A   Clear
11:35 AM 17.6 °F 3.2 °F 10.4 °F 73% 29.92 in 10.0 mi SW 15.0 mph - N/A   Clear
11:55 AM 17.6 °F 4.3 °F 10.4 °F 73% 29.92 in 10.0 mi SW 12.7 mph - N/A   Clear
12:15 PM 17.6 °F 3.2 °F 12.2 °F 79% 29.92 in 10.0 mi WSW 15.0 mph - N/A   Clear
12:35 PM 17.6 °F 4.3 °F 12.2 °F 79% 29.92 in 10.0 mi WSW 12.7 mph - N/A   Clear
12:55 PM 19.4 °F 8.6 °F 12.2 °F 74% 29.91 in 10.0 mi SW 9.2 mph - N/A   Clear
1:15 PM 19.4 °F 7.2 °F 14.0 °F 80% 29.91 in 10.0 mi WSW 11.5 mph - N/A   Clear
1:35 PM 19.4 °F 6.0 °F 14.0 °F 80% 29.91 in 10.0 mi WSW 13.8 mph - N/A   Clear
1:55 PM 19.4 °F 7.9 °F 14.0 °F 80% 29.91 in 10.0 mi WSW 10.4 mph - N/A   Clear
2:15 PM 19.4 °F 7.2 °F 14.0 °F 80% 29.90 in 10.0 mi WSW 11.5 mph - N/A   Clear
2:35 PM 21.2 °F 10.9 °F 14.0 °F 74% 29.90 in 10.0 mi WSW 9.2 mph - N/A   Clear
2:55 PM 19.4 °F 9.5 °F 14.0 °F 80% 29.91 in 10.0 mi WSW 8.1 mph - N/A   Clear
3:15 PM 19.4 °F 7.9 °F 14.0 °F 80% 29.91 in 10.0 mi WSW 10.4 mph - N/A   Clear
3:35 PM 19.4 °F 10.4 °F 14.0 °F 80% 29.91 in 10.0 mi West 6.9 mph - N/A   Clear
3:55 PM 17.6 °F 8.2 °F 12.2 °F 79% 29.90 in 10.0 mi SW 6.9 mph - N/A   Clear
4:15 PM 17.6 °F 6.4 °F 12.2 °F 79% 29.90 in 10.0 mi SSW 9.2 mph - N/A   Clear
4:35 PM 15.8 °F 2.7 °F 10.4 °F 79% 29.91 in 10.0 mi SSW 11.5 mph - N/A   Clear
4:55 PM 17.6 °F 3.7 °F 12.2 °F 79% 29.91 in 10.0 mi SSW 13.8 mph - N/A   Clear
5:15 PM 15.8 °F 1.4 °F 12.2 °F 86% 29.91 in 10.0 mi SSW 13.8 mph - N/A   Clear
5:35 PM 15.8 °F 1.4 °F 10.4 °F 79% 29.91 in 10.0 mi SW 13.8 mph - N/A   Clear
5:55 PM 15.8 °F 2.7 °F 10.4 °F 79% 29.91 in 10.0 mi SSW 11.5 mph - N/A   Clear
6:15 PM 15.8 °F 2.7 °F 10.4 °F 79% 29.91 in 10.0 mi South 11.5 mph - N/A   Clear
6:35 PM 15.8 °F 2.1 °F 10.4 °F 79% 29.91 in 10.0 mi SSW 12.7 mph - N/A   Clear
6:55 PM 15.8 °F 1.4 °F 12.2 °F 86% 29.91 in 10.0 mi SSW 13.8 mph - N/A   Clear
7:15 PM 17.6 °F 3.2 °F 12.2 °F 79% 29.90 in 10.0 mi SSW 15.0 mph - N/A   Clear
7:35 PM 15.8 °F 2.7 °F 10.4 °F 79% 29.90 in 10.0 mi SSW 11.5 mph - N/A   Clear
7:55 PM 14.0 °F -0.2 °F 10.4 °F 86% 29.90 in 10.0 mi SSW 12.7 mph 21.9 mph N/A   Clear
8:15 PM 15.8 °F 0.3 °F 12.2 °F 86% 29.90 in 10.0 mi SSW 16.1 mph - N/A   Partly Cloudy
8:35 PM 17.6 °F 2.2 °F 12.2 °F 79% 29.89 in 10.0 mi SSW 17.3 mph - N/A   Partly Cloudy
8:55 PM 15.8 °F 0.3 °F 12.2 °F 86% 29.89 in 10.0 mi SSW 16.1 mph - N/A   Clear
9:15 PM 17.6 °F 3.7 °F 12.2 °F 79% 29.89 in 10.0 mi SW 13.8 mph - N/A   Clear
9:35 PM 15.8 °F 2.1 °F 12.2 °F 86% 29.89 in 10.0 mi SSW 12.7 mph - N/A   Clear
9:55 PM 15.8 °F 1.4 °F 12.2 °F 86% 29.89 in 10.0 mi SSW 13.8 mph - N/A   Clear
10:15 PM 14.0 °F -0.8 °F 10.4 °F 86% 29.89 in 10.0 mi SSW 13.8 mph - N/A   Clear
10:35 PM 15.8 °F 2.1 °F 12.2 °F 86% 29.88 in 10.0 mi SSW 12.7 mph - N/A   Mostly Cloudy
10:55 PM 17.6 °F 5.0 °F 14.0 °F 86% 29.89 in 10.0 mi SSW 11.5 mph - N/A   Overcast
11:15 PM 17.6 °F 5.0 °F 14.0 °F 86% 29.90 in 10.0 mi SW 11.5 mph - N/A   Overcast
11:35 PM 17.6 °F 5.7 °F 14.0 °F 86% 29.90 in 10.0 mi WSW 10.4 mph - N/A   Overcast